Вернуться в каталог

STARLINK-31274

АктивенСвязьVLEO
NORAD 59078·PAYLOAD·🇺🇸 United States

Запущен Feb 29, 2024 с Cape Canaveral Space Force Station

Loading…

Ближайшие Пролёты (ближайшие 24 часа)

TLE

СвежийSource: CelesTrak SupGP

Эпоха: Sep 14, 2026, 21:02 UTC

1 59078C 24041E   26257.87687500 -.00023766  00000+0 -86114-3 0  2578
2 59078  43.0014 322.3520 0001499 275.8166 109.3982 15.27577689    18

Отслеживайте STARLINK-31274 в реальном времени с AllMySat

Download on the App Store